Location: Gellin
(53.4498°N, 14.3207°E)
Time: 23:07:01
(UTC+00:00)

Cosmos 1378 - Pass Details

Date: 03 March 2021
Orbit: 489 x 501 km, 82.5° (Epoch: 12 April)

Event Time Altitude Azimuth Distance (km) Brightness Sun altitude
Rises 18:23:11 0° 354° (N) 2,608 7.0 -15.4°
Reaches altitude 10° 18:25:26 10° 2° (N) 1,717 5.9 -15.7°
Maximum altitude 18:28:58 38° 72° (ENE) 781 3.6 -16.3°
Enters shadow 18:29:29 36° 93° (E) 812 3.6 -16.3°
